Location: Newark
(50.0306°N, 2.3272°E)
Time: 20:03:02
(UTC+00:00)

Vanguard 1 - Pass Details

Date: 13 December 2019
Orbit: 650 x 3833 km, 34.2° (Epoch: 28 January)

Event Time Altitude Azimuth Distance (km) Brightness Sun altitude
Exits shadow 04:07:38 21° 222° (SW) 5,988 13.6 -32.9°
Maximum altitude 04:23:27 46° 167° (SSE) 4,408 13.3 -30.4°
Drops below altitude 10° 04:40:33 10° 102° (ESE) 5,595 14.9 -27.6°
Sets 04:44:21 0° 96° (E) 6,247 15.5 -27.0°
